When you browse on this site, cookies collect data to enhance your experience and personalize the content and advertising you see.
Visit our Privacy Policy to learn more. By continuing to use the site, you agree to this use of cookies and data.
  • In Sweden
  • List of Countries
  • For 7 days
  • Water Temperature
  • Weather Map
  • Weather Widgets
  • user-avatar
    Login

    Hourly Weather Maldon

    Today, 21 September, Saturday

    Time Temperature Precipitation Wind Pressure Humidity
    00:00 +15°C° 0 mm 6 mps 762 mmHg 68%
    01:00 +15°C° 0 mm 6 mps 762 mmHg 68%
    02:00 +14°C° 0 mm 6 mps 761 mmHg 68%
    03:00 +14°C° 0 mm 6 mps 761 mmHg 68%
    04:00 +14°C° 0 mm 6 mps 760 mmHg 69%
    05:00 +13°C° 0 mm 6 mps 760 mmHg 69%
    06:00 +13°C° 0 mm 6 mps 759 mmHg 70%
    07:00 +14°C° 0 mm 6 mps 759 mmHg 65%
    08:00 +15°C° 0 mm 6 mps 759 mmHg 61%
    09:00 +16°C° 0 mm 6 mps 759 mmHg 56%
    10:00 +17°C° 0 mm 6 mps 758 mmHg 54%
    11:00 +19°C° 0 mm 6 mps 758 mmHg 53%
    12:00 +20°C° 0 mm 6 mps 757 mmHg 51%
    13:00 +21°C° 0 mm 6 mps 757 mmHg 51%
    14:00 +21°C° 0 mm 6 mps 756 mmHg 51%
    15:00 +21°C° 0 mm 5 mps 756 mmHg 51%
    16:00 +20°C° 0 mm 5 mps 755 mmHg 57%
    17:00 +19°C° 0 mm 5 mps 755 mmHg 62%
    18:00 +19°C° 0 mm 4 mps 754 mmHg 67%
    19:00 +19°C° 0 mm 4 mps 754 mmHg 69%
    20:00 +19°C° 0 mm 4 mps 754 mmHg 71%
    21:00 +19°C° 0 mm 4 mps 754 mmHg 74%
    22:00 +19°C° 0 mm 4 mps 754 mmHg 75%
    23:00 +19°C° 0 mm 4 mps 753 mmHg 76%

    Tomorrow, 22 September, Sunday

    Time Temperature Precipitation Wind Pressure Humidity
    00:00 +19°C° 0 mm 4 mps 753 mmHg 78%
    01:00 +19°C° 0 mm 4 mps 752 mmHg 77%
    02:00 +19°C° 0 mm 4 mps 752 mmHg 77%
    03:00 +19°C° 0 mm 4 mps 752 mmHg 76%
    04:00 +18°C° 0.1 mm 4 mps 751 mmHg 78%
    05:00 +18°C° 0.1 mm 4 mps 751 mmHg 80%
    06:00 +18°C° 0.1 mm 4 mps 751 mmHg 82%
    07:00 +19°C° 0.2 mm 5 mps 751 mmHg 79%
    08:00 +20°C° 0.2 mm 5 mps 750 mmHg 76%
    09:00 +21°C° 0.2 mm 6 mps 750 mmHg 74%
    10:00 +21°C° 0 mm 6 mps 750 mmHg 72%
    11:00 +20°C° 0 mm 6 mps 751 mmHg 71%
    12:00 +20°C° 0 mm 7 mps 751 mmHg 69%
    13:00 +19°C° 0.2 mm 6 mps 751 mmHg 70%
    14:00 +19°C° 0.2 mm 5 mps 751 mmHg 70%
    15:00 +18°C° 0.2 mm 4 mps 751 mmHg 71%
    16:00 +18°C° 0 mm 4 mps 751 mmHg 72%
    17:00 +18°C° 0 mm 4 mps 751 mmHg 73%
    18:00 +17°C° 0 mm 4 mps 751 mmHg 74%
    19:00 +17°C° 0 mm 4 mps 751 mmHg 76%
    20:00 +16°C° 0 mm 5 mps 752 mmHg 78%
    21:00 +15°C° 0 mm 5 mps 752 mmHg 80%
    22:00 +15°C° 0 mm 5 mps 752 mmHg 83%
    23:00 +14°C° 0 mm 5 mps 752 mmHg 85%

    Day after tomorrow, 23 September, Monday

    Time Temperature Precipitation Wind Pressure Humidity
    00:00 +14°C° 0 mm 6 mps 753 mmHg 88%
    01:00 +14°C° 0 mm 6 mps 753 mmHg 85%
    02:00 +13°C° 0 mm 6 mps 753 mmHg 83%
    03:00 +13°C° 0 mm 6 mps 754 mmHg 81%
    04:00 +13°C° 0 mm 6 mps 754 mmHg 80%
    05:00 +11°C° 0 mm 6 mps 754 mmHg 80%
    06:00 +12°C° 0 mm 5 mps 754 mmHg 79%
    07:00 +13°C° 0 mm 5 mps 755 mmHg 75%
    08:00 +15°C° 0 mm 6 mps 755 mmHg 72%
    09:00 +17°C° 0 mm 6 mps 755 mmHg 68%
    10:00 +17°C° 0.2 mm 6 mps 755 mmHg 66%
    11:00 +18°C° 0.2 mm 7 mps 755 mmHg 64%
    12:00 +18°C° 0.2 mm 8 mps 755 mmHg 63%
    13:00 +18°C° 0 mm 7 mps 755 mmHg 63%
    14:00 +18°C° 0 mm 7 mps 755 mmHg 63%
    15:00 +18°C° 0 mm 7 mps 754 mmHg 64%
    16:00 +17°C° 0.2 mm 7 mps 754 mmHg 69%
    17:00 +16°C° 0.2 mm 6 mps 754 mmHg 74%
    18:00 +15°C° 0.2 mm 6 mps 753 mmHg 80%
    19:00 +15°C° 0.8 mm 7 mps 753 mmHg 83%
    20:00 +15°C° 0.8 mm 8 mps 753 mmHg 86%
    21:00 +15°C° 0.8 mm 9 mps 753 mmHg 89%
    22:00 +16°C° 0.8 mm 9 mps 752 mmHg 89%
    23:00 +16°C° 0.8 mm 8 mps 752 mmHg 89%

    24 September, Tuesday

    Time Temperature Precipitation Wind Pressure Humidity
    00:00 +16°C° 0.8 mm 8 mps 752 mmHg 89%
    01:00 +16°C° 0.5 mm 8 mps 751 mmHg 89%
    02:00 +17°C° 0.5 mm 7 mps 751 mmHg 89%
    03:00 +17°C° 0.5 mm 7 mps 751 mmHg 89%
    04:00 +17°C° 0.2 mm 6 mps 750 mmHg 89%
    05:00 +17°C° 0.2 mm 6 mps 750 mmHg 89%
    06:00 +17°C° 0.2 mm 6 mps 749 mmHg 89%
    07:00 +17°C° 2.9 mm 7 mps 749 mmHg 89%
    08:00 +16°C° 2.9 mm 8 mps 749 mmHg 89%
    09:00 +16°C° 2.9 mm 9 mps 749 mmHg 89%
    10:00 +17°C° 1.6 mm 8 mps 748 mmHg 81%
    11:00 +18°C° 1.6 mm 8 mps 748 mmHg 74%
    12:00 +20°C° 1.6 mm 7 mps 748 mmHg 67%
    13:00 +20°C° 0 mm 8 mps 748 mmHg 65%
    14:00 +20°C° 0 mm 8 mps 748 mmHg 62%
    15:00 +19°C° 0 mm 9 mps 748 mmHg 59%
    16:00 +18°C° 0 mm 8 mps 748 mmHg 63%
    17:00 +17°C° 0 mm 8 mps 748 mmHg 66%
    18:00 +16°C° 0 mm 7 mps 748 mmHg 69%
    19:00 +16°C° 0 mm 8 mps 748 mmHg 73%
    20:00 +16°C° 0 mm 8 mps 748 mmHg 76%
    21:00 +16°C° 0 mm 9 mps 748 mmHg 79%
    22:00 +16°C° 0.1 mm 8 mps 747 mmHg 78%
    23:00 +16°C° 0.1 mm 8 mps 747 mmHg 77%

    25 September, Wednesday

    Time Temperature Precipitation Wind Pressure Humidity
    00:00 +15°C° 0.1 mm 8 mps 747 mmHg 76%
    01:00 +15°C° 0.1 mm 8 mps 746 mmHg 76%
    02:00 +15°C° 0.1 mm 8 mps 746 mmHg 77%
    03:00 +15°C° 0.1 mm 8 mps 746 mmHg 77%
    04:00 +13°C° 0.2 mm 8 mps 746 mmHg 79%
    05:00 +13°C° 0.2 mm 8 mps 746 mmHg 81%
    06:00 +14°C° 0.2 mm 7 mps 746 mmHg 83%
    07:00 +13°C° 0.4 mm 8 mps 747 mmHg 83%
    08:00 +13°C° 0.4 mm 8 mps 747 mmHg 82%
    09:00 +13°C° 0.4 mm 8 mps 747 mmHg 81%
    10:00 +15°C° 0.6 mm 8 mps 748 mmHg 78%
    11:00 +16°C° 0.6 mm 8 mps 748 mmHg 75%
    12:00 +16°C° 0.6 mm 7 mps 748 mmHg 72%
    13:00 +16°C° 0.1 mm 8 mps 748 mmHg 70%
    14:00 +17°C° 0.1 mm 8 mps 748 mmHg 68%
    15:00 +17°C° 0.1 mm 8 mps 748 mmHg 66%
    16:00 +16°C° 0.1 mm 8 mps 748 mmHg 70%
    17:00 +15°C° 0.1 mm 7 mps 748 mmHg 74%
    18:00 +15°C° 0.1 mm 7 mps 748 mmHg 78%
    19:00 +15°C° 2.7 mm 6 mps 748 mmHg 83%
    20:00 +15°C° 2.7 mm 6 mps 748 mmHg 88%
    21:00 +15°C° 2.7 mm 6 mps 748 mmHg 93%
    22:00 +15°C° 1.3 mm 6 mps 748 mmHg 92%
    23:00 +15°C° 1.3 mm 6 mps 747 mmHg 92%

    26 September, Thursday

    Time Temperature Precipitation Wind Pressure Humidity
    00:00 +16°C° 1.3 mm 6 mps 747 mmHg 91%
    01:00 +16°C° 0.2 mm 6 mps 746 mmHg 91%
    02:00 +16°C° 0.2 mm 6 mps 746 mmHg 91%
    03:00 +16°C° 0.2 mm 6 mps 746 mmHg 90%
    04:00 +16°C° 0.7 mm 6 mps 745 mmHg 90%
    05:00 +16°C° 0.7 mm 6 mps 745 mmHg 89%
    06:00 +17°C° 0.7 mm 7 mps 745 mmHg 89%
    07:00 +17°C° 0.2 mm 7 mps 745 mmHg 85%
    08:00 +18°C° 0.2 mm 8 mps 745 mmHg 82%
    09:00 +18°C° 0.2 mm 9 mps 746 mmHg 79%
    10:00 +19°C° 0.6 mm 9 mps 746 mmHg 76%
    11:00 +19°C° 0.6 mm 9 mps 746 mmHg 72%
    12:00 +21°C° 0.6 mm 9 mps 746 mmHg 69%
    13:00 +19°C° 0.1 mm 9 mps 746 mmHg 67%
    14:00 +18°C° 0.1 mm 9 mps 746 mmHg 65%
    15:00 +18°C° 0.1 mm 10 mps 746 mmHg 64%
    16:00 +17°C° 0.1 mm 9 mps 746 mmHg 65%
    17:00 +16°C° 0.1 mm 8 mps 747 mmHg 67%
    18:00 +15°C° 0.1 mm 7 mps 747 mmHg 69%
    19:00 +14°C° 0 mm 7 mps 747 mmHg 71%
    20:00 +13°C° 0 mm 8 mps 747 mmHg 73%
    21:00 +13°C° 0 mm 8 mps 747 mmHg 74%
    22:00 +13°C° 0 mm 8 mps 747 mmHg 75%
    23:00 +12°C° 0 mm 8 mps 747 mmHg 76%
    Show more